[[{"header":{"parameterUnit":"m.s-1","parameterCategory":1,"la1":30.2991,"la2":30.254,"lo1":-89.0895,"lo2":-89.0444,"dy":0.0017,"dx":0.0017,"nx":28,"ny":28,"refTime":"2025-11-27T09:00:00:Z","depth":0,"parameterNumber":2,"parameterNumberName":"U-component_of_WINDS"},"data":[0,0,0,0,0,0,0,0,0,0,0,0,0,0,0,0,0,0,0,0,0,0,0,0,0,0,0,0,0,0,0,0,0,0,0,0,0,0,0,0,0,0,0,0,0,0,0,0,0,0,0,0,0,0,0,0,0,0,-3.0508,-3.0508,0,-3.0549,-3.0549,-3.055,-3.0472,-3.047,-3.0467,-3.0465,-3.0507,-3.051,-3.0513,0,0,0,0,0,0,0,0,0,0,0,0,0,-3.0362,-3.0366,-3.0508,-3.0508,-3.0509,-3.0549,-3.0549,-3.055,-3.0473,-3.047,-3.0466,-3.0463,-3.0505,-3.0509,-3.0514,0,0,0,0,0,0,0,0,0,0,0,0,0,-3.0417,-3.0367,-3.0508,-3.0475,-3.0473,-3.0549,-3.0549,-3.055,-3.0473,-3.0469,-3.0466,-3.0462,-3.0504,-3.0509,-3.0514,-3.0624,0,0,-3.053,-3.0533,0,0,0,0,0,0,0,0,-3.0414,-3.0422,-3.048,-3.0478,-3.0475,-3.0501,-3.0513,-3.0575,-3.0474,-3.0473,-3.0465,-3.046,-3.0508,-3.0513,-3.0529,-3.0626,-3.0628,-3.0531,-3.0534,-3.0536,-3.0538,0,0,0,0,0,0,0,-3.041,-3.042,-3.0524,-3.048,-3.0478,-3.0458,-3.0462,-3.0525,-3.0512,-3.0473,-3.0467,-3.0473,-3.0506,-3.0524,-3.0529,-3.0628,-3.0531,-3.0535,-3.0539,-3.0541,-3.0817,-3.0821,0,0,0,0,0,0,-3.041,-3.0417,-3.0523,-3.0525,-3.0434,-3.0464,-3.0468,-3.0497,-3.0511,-3.0509,-3.0477,-3.047,-3.0517,-3.0523,-3.053,-3.066,-3.0536,-3.0541,-3.0544,-3.0813,-3.0818,-3.0822,0,0,0,0,0,0,-3.0408,-3.0421,-3.0521,-3.047,-3.0481,-3.0471,-3.0504,-3.05,-3.0518,-3.0513,-3.0511,-3.0497,-3.0514,-3.0523,-3.0601,-3.066,-3.0544,-3.0548,-3.0808,-3.0814,-3.082,-3.092,0,0,0,0,0,0,-3.0404,-3.042,-3.0462,-3.0471,-3.0484,-3.0592,-3.0507,-3.0503,-3.0527,-3.0518,-3.0532,-3.0531,-3.0512,-3.0594,-3.0606,-3.0665,-3.0552,-3.0803,-3.0811,-3.0818,-3.0912,-3.0929,-3.0944,0,0,0,0,0,-3.0399,-3.0488,-3.0464,-3.0478,-3.0536,-3.0595,-3.0603,-3.0579,-3.0532,-3.0574,-3.0571,-3.053,-3.0651,-3.0602,-3.0616,-3.0678,-3.0799,-3.0808,-3.0818,-3.0904,-3.0926,-3.0944,0,0,0,0,0,0,-3.0486,-3.0489,-3.0463,-3.0558,-3.0577,-3.0582,-3.0635,-3.0602,-3.0635,-3.0626,-3.0594,-3.0598,-3.0683,-3.0687,-3.0633,-3.0784,-3.0717,-3.073,-3.0778,-3.0799,-3.0815,-3.0812,-3.0557,0,0,0,0,0,-3.0517,-3.0565,-3.0564,-3.0648,-3.0659,-3.0646,-3.067,-3.065,-3.0669,-3.0676,-3.0679,-3.0699,-3.0741,-3.077,-3.0808,-3.0911,-3.0913,-3.096,-3.0976,-3.099,-3.1002,-3.1056,-3.1077,-3.0853,-3.0853,-3.0853,0,0,-3.058,-3.0587,-3.062,-3.0666,-3.0679,-3.0729,-3.0653,-3.0709,-3.0746,-3.0685,-3.0759,-3.0762,-3.0782,-3.0873,-3.0913,-3.0879,-3.1063,-3.1002,-3.1012,-3.1017,-3.1068,-3.109,-3.1108,-3.086,-3.0859,-3.0858,0,0,-3.0722,-3.0732,-3.0803,-3.0817,-3.0837,-3.0827,-3.0844,-3.0854,-3.0854,-3.0927,-3.0882,-3.0926,-3.0999,-3.1015,-3.1033,-3.1179,-3.1144,-3.1193,-3.1278,-3.1332,-3.135,-3.1366,-3.1419,-3.1438,-3.1204,-3.1204,-3.1204,0,-3.0798,-3.0872,-3.0844,-3.0904,-3.0926,-3.0872,-3.0944,-3.0958,-3.099,-3.1006,-3.0968,-3.1059,-3.1068,-3.1163,-3.1198,-3.1214,-3.1233,-3.1192,-3.135,-3.1365,-3.1379,-3.1429,-3.1449,-3.121,-3.121,-3.1209,-3.1208,0,-3.0966,-3.1018,-3.1073,-3.1105,-3.1133,-3.1199,-3.118,-3.1211,-3.1188,-3.1182,-3.1258,-3.1267,-3.1307,-3.1327,-3.1305,-3.1419,-3.1397,-3.1355,-3.1287,-3.1407,-3.1454,-3.1473,-3.1219,-3.1217,-3.1215,-3.1213,0,0,-3.1165,-3.118,-3.1201,-3.1215,-3.1232,-3.1272,-3.1335,-3.1373,-3.1401,-3.1424,-3.1477,-3.1539,-3.15,-3.152,-3.1499,-3.1547,-3.1663,-3.1498,-3.1498,-3.153,-3.1789,-3.1822,-3.1845,-3.1638,-3.1642,-3.1645,-3.1788,0,-3.1307,-3.1416,-3.1392,-3.1499,-3.1547,-3.1495,-3.155,-3.1567,-3.1562,-3.1602,-3.1597,-3.1643,-3.1587,-3.1599,-3.1643,-3.164,-3.1715,-3.1629,-3.1688,-3.169,-3.1686,-3.1869,-3.1905,-3.2039,-3.1806,-3.1809,-3.1811,0,-3.1487,-3.1517,-3.1629,-3.1639,-3.1658,-3.1708,-3.1741,-3.178,-3.1797,-3.179,-3.1813,-3.1782,-3.1844,-3.1775,-3.186,-3.1802,-3.1824,-3.1826,-3.183,-3.1836,-3.1759,-3.1882,-3.2082,-3.2103,-3.184,-3.1837,-3.1835,0,-3.1623,-3.1691,-3.1767,-3.178,-3.1793,-3.1829,-3.1836,-3.1849,-3.1874,-3.1903,-3.1919,-3.1954,-3.1975,-3.2003,-3.1983,-3.1934,-3.2071,-3.2,-3.2068,-3.2069,-3.2101,-3.21,-3.2309,-3.2113,-3.2113,-3.2112,-3.2112,0,-3.1785,-3.1856,-3.1829,-3.1876,-3.1954,-3.1924,-3.2002,-3.2003,-3.2015,-3.2061,-3.2018,-3.2062,-3.2032,-3.2074,-3.2058,-3.2131,-3.214,-3.2137,-3.2132,-3.2142,-3.2143,-3.2157,-3.2148,-3.2118,-3.2117,-3.2116,-3.2115,0,-3.1951,-3.1935,-3.2015,-3.202,-3.2023,-3.208,-3.2084,-3.2128,-3.2119,-3.2178,-3.2191,-3.2178,-3.2224,-3.2207,-3.2256,-3.2245,-3.234,-3.2322,-3.2334,-3.233,-3.24,-3.2395,-3.2628,-3.2657,-3.2441,-3.2443,-3.2445,0,-3.2056,-3.2109,-3.212,-3.2148,-3.2158,-3.2203,-3.2228,-3.2201,-3.2228,-3.2252,-3.2293,-3.2335,-3.2368,-3.2445,-3.244,-3.2477,-3.2461,-3.254,-3.2467,-3.2475,-3.2464,-3.2462,-3.2467,-3.2556,-3.2558,-3.256,-3.2562,0,-3.2245,-3.2234,-3.2272,-3.2307,-3.2338,-3.2365,-3.2387,-3.2412,-3.2386,-3.2419,-3.2466,-3.2492,-3.2542,-3.2585,-3.2618,-3.2625,-3.259,-3.2585,-3.2603,-3.2614,-3.262,-3.2619,-3.2376,-3.258,-3.2578,-3.2577,-3.2576,-3.2575,-3.2384,-3.243,-3.2444,-3.2488,-3.2501,-3.2523,-3.2565,-3.2561,-3.26,-3.2639,-3.262,-3.2675,-3.269,-3.2731,-3.2742,-3.2784,-3.2754,-3.278,-3.2786,-3.2794,-3.2803,-3.2611,-3.279,-3.279,-3.2789,-3.2789,-3.2788,0,-3.2572,-3.2578,-3.2618,-3.2651,-3.2686,-3.2648,-3.2671,-3.2702,-3.2751,-3.2768,-3.2801,-3.2855,-3.2896,-3.2894,-3.2932,-3.2967,-3.2951,-3.2978,-3.2976,-3.2978,-3.2828,-3.2809,-3.2989,-3.2989,-3.2989,-3.2989,-3.2989,-3.2989,-3.2674,-3.2748,-3.274,-3.2821,-3.2826,-3.288,-3.2896,-3.2916,-3.2929,-3.2992,-3.3026,-3.3024,-3.3033,-3.3071,-3.3108,-3.3106,-3.3122,-3.3155,-3.3148,-3.3008,-3.2988,-3.2969,-3.2952,-3.3159,-3.3159,-3.3294,-3.3295,-3.3296]},{"header":{"parameterUnit":"m.s-1","parameterCategory":1,"la1":30.2991,"la2":30.254,"lo1":-89.0895,"lo2":-89.0444,"dy":0.0017,"dx":0.0017,"nx":28,"ny":28,"refTime":"2025-11-27T09:00:00:Z","depth":0,"parameterNumber":3,"parameterNumberName":"V-component_of_WINDS"},"data":[0,0,0,0,0,0,0,0,0,0,0,0,0,0,0,0,0,0,0,0,0,0,0,0,0,0,0,0,0,0,0,0,0,0,0,0,0,0,0,0,0,0,0,0,0,0,0,0,0,0,0,0,0,0,0,0,0,0,-6.0538,-6.0539,0,-6.064,-6.0641,-6.0642,-6.058,-6.0577,-6.0574,-6.0572,-6.0671,-6.0676,-6.0682,0,0,0,0,0,0,0,0,0,0,0,0,0,-6.0285,-6.029,-6.0538,-6.0539,-6.0541,-6.064,-6.0641,-6.0642,-6.0581,-6.0577,-6.0574,-6.057,-6.0669,-6.0676,-6.0682,0,0,0,0,0,0,0,0,0,0,0,0,0,-6.0392,-6.0292,-6.0538,-6.0522,-6.0522,-6.0639,-6.0641,-6.0643,-6.0582,-6.0577,-6.0573,-6.0569,-6.0667,-6.0675,-6.0683,-6.0821,0,0,-6.0708,-6.0711,0,0,0,0,0,0,0,0,-6.0386,-6.0401,-6.0523,-6.0523,-6.0523,-6.0593,-6.0588,-6.0702,-6.0583,-6.0559,-6.0572,-6.0567,-6.0648,-6.0658,-6.0686,-6.0826,-6.083,-6.0709,-6.0713,-6.0717,-6.0719,0,0,0,0,0,0,0,-6.0378,-6.0396,-6.0578,-6.0525,-6.0525,-6.0508,-6.0518,-6.061,-6.0627,-6.056,-6.0556,-6.0569,-6.0647,-6.0679,-6.0688,-6.0831,-6.0708,-6.0715,-6.072,-6.0724,-6.1089,-6.1093,0,0,0,0,0,0,-6.0373,-6.0391,-6.0575,-6.0581,-6.0442,-6.0516,-6.0528,-6.0575,-6.0626,-6.0629,-6.0573,-6.0566,-6.0667,-6.0679,-6.0691,-6.0857,-6.0717,-6.0724,-6.0729,-6.1084,-6.109,-6.1095,0,0,0,0,0,0,-6.0368,-6.039,-6.0571,-6.0485,-6.0507,-6.0525,-6.0579,-6.0579,-6.061,-6.0635,-6.0637,-6.0602,-6.0664,-6.068,-6.079,-6.0859,-6.0728,-6.0735,-6.1078,-6.1086,-6.1092,-6.1188,0,0,0,0,0,0,-6.0361,-6.0389,-6.0442,-6.0487,-6.0512,-6.0669,-6.0583,-6.0584,-6.0625,-6.0617,-6.0663,-6.0667,-6.0662,-6.0778,-6.0798,-6.0868,-6.0742,-6.1072,-6.1081,-6.109,-6.1179,-6.1198,-6.1214,0,0,0,0,0,-6.0352,-6.0464,-6.0445,-6.0468,-6.0579,-6.0673,-6.0687,-6.0681,-6.0631,-6.0685,-6.07,-6.0665,-6.0848,-6.079,-6.0811,-6.0885,-6.1067,-6.1079,-6.1089,-6.1171,-6.1194,-6.1214,0,0,0,0,0,0,-6.0426,-6.047,-6.0449,-6.058,-6.0623,-6.0663,-6.073,-6.0706,-6.0763,-6.0753,-6.0741,-6.0752,-6.0867,-6.0886,-6.082,-6.1021,-6.095,-6.0966,-6.1004,-6.1027,-6.1044,-6.1037,-6.0748,0,0,0,0,0,-6.0458,-6.0532,-6.0565,-6.0677,-6.07,-6.0712,-6.0752,-6.0744,-6.0788,-6.0805,-6.0829,-6.0872,-6.0939,-6.0984,-6.1047,-6.1181,-6.119,-6.1242,-6.126,-6.1274,-6.1288,-6.1361,-6.1384,-6.1131,-6.1131,-6.113,0,0,-6.0523,-6.0556,-6.0604,-6.0692,-6.0725,-6.0801,-6.0727,-6.081,-6.0866,-6.0817,-6.0923,-6.0942,-6.0989,-6.1112,-6.1167,-6.1132,-6.136,-6.1288,-6.1299,-6.1306,-6.1374,-6.1398,-6.142,-6.1138,-6.1137,-6.1136,0,0,-6.0682,-6.0715,-6.0812,-6.0847,-6.0898,-6.0905,-6.0928,-6.0972,-6.0983,-6.1089,-6.1054,-6.1119,-6.1235,-6.127,-6.1303,-6.1475,-6.1445,-6.1496,-6.1588,-6.1659,-6.1679,-6.1697,-6.1758,-6.1781,-6.1509,-6.151,-6.151,0,-6.0757,-6.0872,-6.0864,-6.0951,-6.099,-6.0951,-6.1049,-6.1082,-6.1151,-6.1179,-6.1138,-6.1284,-6.1312,-6.1443,-6.1485,-6.1513,-6.1538,-6.1491,-6.1677,-6.1695,-6.1711,-6.177,-6.1793,-6.1516,-6.1515,-6.1514,-6.1514,0,-6.0961,-6.1041,-6.1113,-6.1183,-6.123,-6.1321,-6.1326,-6.1375,-6.1362,-6.1373,-6.1481,-6.1514,-6.1584,-6.1613,-6.1601,-6.1742,-6.1719,-6.1678,-6.1607,-6.1741,-6.1796,-6.1819,-6.1524,-6.1522,-6.152,-6.1519,0,0,-6.117,-6.1235,-6.1261,-6.1293,-6.1347,-6.1407,-6.1496,-6.1566,-6.1608,-6.1656,-6.173,-6.1829,-6.1792,-6.183,-6.182,-6.1883,-6.2018,-6.1834,-6.1835,-6.1868,-6.2176,-6.2207,-6.2233,-6.1997,-6.2002,-6.2005,-6.2172,0,-6.1333,-6.1491,-6.1486,-6.1633,-6.1706,-6.167,-6.1747,-6.1788,-6.18,-6.1863,-6.1875,-6.1946,-6.1891,-6.1914,-6.1973,-6.1989,-6.2079,-6.1976,-6.2065,-6.2069,-6.2056,-6.2262,-6.2295,-6.2451,-6.2193,-6.2197,-6.22,0,-6.1544,-6.1602,-6.1756,-6.18,-6.183,-6.1901,-6.1964,-6.2025,-6.2069,-6.2074,-6.2116,-6.2097,-6.2186,-6.2111,-6.2233,-6.2163,-6.2199,-6.2212,-6.2218,-6.2226,-6.2143,-6.2277,-6.2501,-6.2525,-6.2233,-6.2231,-6.2228,0,-6.1682,-6.1798,-6.1906,-6.1933,-6.1987,-6.2037,-6.2061,-6.2101,-6.2143,-6.2198,-6.2225,-6.2289,-6.2324,-6.2373,-6.2371,-6.2317,-6.2495,-6.242,-6.25,-6.2501,-6.254,-6.2538,-6.2774,-6.2562,-6.2562,-6.2561,-6.2561,0,-6.1865,-6.1961,-6.1969,-6.2035,-6.2141,-6.2134,-6.2239,-6.2257,-6.2294,-6.2362,-6.2333,-6.2397,-6.239,-6.2455,-6.2453,-6.2555,-6.257,-6.2576,-6.2574,-6.2579,-6.2579,-6.2603,-6.2593,-6.2567,-6.2566,-6.2565,-6.2564,0,-6.2038,-6.2047,-6.2162,-6.2203,-6.2215,-6.2292,-6.2326,-6.2388,-6.2398,-6.2485,-6.2504,-6.2519,-6.2593,-6.2596,-6.2681,-6.268,-6.2803,-6.2789,-6.2789,-6.2787,-6.2868,-6.2861,-6.3129,-6.3164,-6.2928,-6.293,-6.2932,0,-6.2154,-6.2228,-6.2278,-6.2322,-6.235,-6.2422,-6.2465,-6.246,-6.2506,-6.2563,-6.2618,-6.269,-6.2748,-6.2867,-6.2885,-6.2949,-6.2937,-6.3026,-6.2946,-6.2949,-6.2939,-6.2935,-6.2943,-6.3042,-6.3045,-6.3047,-6.3049,0,-6.2361,-6.2362,-6.2427,-6.2494,-6.2547,-6.2598,-6.2646,-6.2684,-6.2684,-6.2737,-6.2814,-6.2859,-6.2946,-6.3017,-6.308,-6.3103,-6.3076,-6.3074,-6.3096,-6.3102,-6.3099,-6.3103,-6.2833,-6.3068,-6.3066,-6.3064,-6.3063,-6.3063,-6.251,-6.2574,-6.2619,-6.2692,-6.2728,-6.2774,-6.2835,-6.2852,-6.2917,-6.2989,-6.2981,-6.3066,-6.3108,-6.319,-6.3218,-6.3284,-6.3253,-6.3285,-6.3293,-6.3301,-6.331,-6.3088,-6.3295,-6.3294,-6.3294,-6.3293,-6.3293,0,-6.2716,-6.2743,-6.2811,-6.288,-6.2937,-6.2908,-6.296,-6.3009,-6.3085,-6.3127,-6.3185,-6.3273,-6.3342,-6.3364,-6.3431,-6.3479,-6.3469,-6.3497,-6.3494,-6.35,-6.3334,-6.3308,-6.3505,-6.3504,-6.3504,-6.3504,-6.3504,-6.3504,-6.283,-6.2937,-6.2943,-6.3066,-6.3092,-6.3177,-6.3209,-6.3251,-6.3285,-6.3385,-6.3443,-6.3458,-6.3492,-6.3561,-6.3623,-6.3628,-6.3654,-6.3688,-6.3688,-6.3532,-6.3511,-6.3491,-6.3467,-6.3693,-6.3694,-6.3848,-6.3849,-6.385]}]]